CW5248 Weather Reports


Display with metric or nautical units.
time (UTC)temp
F
wind
direction
speed
MPH
gust
MPH
rain 1hr
in
rain 24hr
in
rain mn
in
humidity
%
barometer
mb
20181215190348 48 214 5.0 10.0 0.00 0.00 0.00 21 1018.3
20181215185337 47 247 7.0 10.0 0.00 0.00 0.00 20 1018.3
20181215184342 46 284 5.0 7.0 0.00 0.00 0.00 20 1018.6
20181215183343 45 213 2.0 4.0 0.00 0.00 0.00 20 1018.9
20181215182331 44 197 2.0 4.0 0.00 0.00 0.00 20 1018.9
20181215181343 44 196 1.0 4.0 0.00 0.00 0.00 20 1019.0
20181215180344 43 198 1.0 6.0 0.00 0.00 0.00 20 1019.1
20181215175348 43 206 2.0 6.0 0.00 0.00 0.00 21 1019.1
20181215174351 43 200 3.0 6.0 0.00 0.00 0.00 20 1019.4
20181215173337 43 237 2.0 8.0 0.00 0.00 0.00 20 1019.6
20181215172340 42 200 1.0 6.0 0.00 0.00 0.00 21 1019.6
20181215171348 42 265 2.0 8.0 0.00 0.00 0.00 20 1019.6
20181215170330 41 237 3.0 6.0 0.00 0.00 0.00 20 1019.7
20181215165338 41 274 2.0 6.0 0.00 0.00 0.00 21 1019.7
20181215164340 40 194 2.0 6.0 0.00 0.00 0.00 23 1019.6
20181215163345 40 177 2.0 7.0 0.00 0.00 0.00 22 1019.6
20181215162333 39 150 1.0 4.0 0.00 0.00 0.00 23 1019.6
20181215161345 38 96 3.0 6.0 0.00 0.00 0.00 23 1019.6
20181215160331 37 163 1.0 5.0 0.00 0.00 0.00 23 1019.2
20181215155337 37 132 3.0 6.0 0.00 0.00 0.00 23 1019.2
20181215154338 36 157 3.0 5.0 0.00 0.00 0.00 23 1019.0
20181215153345 36 120 1.0 5.0 0.00 0.00 0.00 24 1018.9
20181215152350 35 155 3.0 8.0 0.00 0.00 0.00 24 1018.9
20181215151333 34 132 3.0 8.0 0.00 0.00 0.00 24 1019.0
20181215150337 33 106 4.0 6.0 0.00 0.00 0.00 25 1018.9
20181215145346 33 97 4.0 8.0 0.00 0.00 0.00 27 1018.9
20181215144328 33 104 2.0 6.0 0.00 0.00 0.00 28 1018.9
20181215143334 33 95 5.0 6.0 0.00 0.00 0.00 25 1018.7
20181215142343 34 126 2.0 8.0 0.00 0.00 0.00 27 1018.7
20181215141335 34 87 6.0 9.0 0.00 0.00 0.00 25 1018.8
20181215140336 34 76 3.0 8.0 0.00 0.00 0.00 26 1018.9
20181215135344 34 102 4.0 7.0 0.00 0.00 0.00 26 1018.9
20181215134348 34 80 3.0 6.0 0.00 0.00 0.00 27 1018.8
20181215133335 35 101 4.0 7.0 0.00 0.00 0.00 23 1018.3
20181215132339 34 96 4.0 9.0 0.00 0.00 0.00 23 1018.3
20181215131342 34 111 4.0 7.0 0.00 0.00 0.00 23 1018.4
20181215130349 34 90 4.0 7.0 0.00 0.00 0.00 24 1018.5
20181215125337 34 205 2.0 9.0 0.00 0.00 0.00 24 1018.5
20181215124341 35 92 1.0 5.0 0.00 0.00 0.00 27 1018.4
20181215123344 35 85 2.0 5.0 0.00 0.00 0.00 23 1018.3
20181215122351 35 114 3.0 8.0 0.00 0.00 0.00 22 1018.3
20181215121339 35 134 2.0 8.0 0.00 0.00 0.00 22 1018.3
20181215120341 35 104 5.0 9.0 0.00 0.00 0.00 21 1018.2
20181215115345 34 101 5.0 10.0 0.00 0.00 0.00 22 1018.2
20181215114348 34 177 3.0 9.0 0.00 0.00 0.00 22 1018.3
20181215113333 34 136 3.0 4.0 0.00 0.00 0.00 24 1018.3
20181215112341 35 360 4.0 7.0 0.00 0.00 0.00 24 1018.3
20181215111346 35 98 1.0 8.0 0.00 0.00 0.00 23 1018.3
20181215110326 35 300 2.0 6.0 0.00 0.00 0.00 21 1018.3
20181215105339 34 105 3.0 4.0 0.00 0.00 0.00 24 1018.3
20181215104344 34 155 1.0 4.0 0.00 0.00 0.00 24 1018.3
20181215103345 33 136 3.0 6.0 0.00 0.00 0.00 26 1018.3
20181215102350 34 100 4.0 6.0 0.00 0.00 0.00 27 1018.3
20181215101337 35 81 3.0 4.0 0.00 0.00 0.00 26 1018.3
20181215100341 35 55 1.0 6.0 0.00 0.00 0.00 25 1018.4
20181215095343 35 170 3.0 5.0 0.00 0.00 0.00 22 1018.4
20181215094347 34 49 3.0 6.0 0.00 0.00 0.00 23 1018.5
20181215093332 34 59 3.0 4.0 0.00 0.00 0.00 32 1018.3
20181215092336 34 88 2.0 5.0 0.00 0.00 0.00 27 1018.3
20181215091341 33 12 4.0 7.0 0.00 0.00 0.00 28 1018.4
20181215090343 33 86 3.0 6.0 0.00 0.00 0.00 35 1018.4
20181215085331 33 123 2.0 5.0 0.00 0.00 0.00 34 1018.4
20181215084339 34 67 1.0 6.0 0.00 0.00 0.00 28 1018.4
20181215083340 34 111 3.0 6.0 0.00 0.00 0.00 26 1018.4
20181215082347 34 107 4.0 6.0 0.00 0.00 0.00 29 1018.4
20181215081338 35 104 3.0 5.0 0.00 0.00 0.00 27 1018.6
20181215080341 35 98 2.0 5.0 0.00 0.00 0.00 28 1018.8
20181215075345 35 88 2.0 6.0 0.00 0.00 0.00 28 1018.8
20181215074347 35 90 2.0 6.0 0.00 0.00 0.00 28 1019.0
20181215073334 36 59 3.0 9.0 0.00 0.00 0.00 30 1019.0
20181215072339 36 79 3.0 5.0 0.00 0.00 0.00 31 1019.0
20181215071343 36 73 2.0 5.0 0.00 0.00 0.00 28 1019.0
20181215070350 36 157 3.0 6.0 0.00 0.00 0.00 27 1019.2
20181215065337 36 67 3.0 9.0 0.00 0.00 0.00 27 1019.2
20181215064341 37 74 3.0 8.0 0.00 0.00 0.00 29 1019.4
20181215063343 37 115 5.0 9.0 0.00 0.00 0.00 23 1019.4
20181215062347 35 84 5.0 9.0 0.00 0.00 0.00 26 1019.4
20181215061336 35 71 4.0 6.0 0.00 0.00 0.00 28 1019.6
20181215060336 35 86 3.0 9.0 0.00 0.00 0.00 28 1019.6
20181215055340 34 153 4.0 9.0 0.00 0.00 0.00 27 1019.6
20181215054328 35 75 3.0 7.0 0.00 0.00 0.00 30 1019.6
20181215053336 35 110 5.0 9.0 0.00 0.00 0.00 28 1019.6
20181215052340 34 114 5.0 9.0 0.00 0.00 0.00 27 1019.6
20181215051344 32 99 2.0 5.0 0.00 0.00 0.00 34 1019.7
20181215050345 32 70 3.0 8.0 0.00 0.00 0.00 36 1019.7
20181215045334 32 63 4.0 5.0 0.00 0.00 0.00 38 1019.7
20181215044336 31 96 2.0 5.0 0.00 0.00 0.00 38 1019.7
20181215043339 31 58 3.0 6.0 0.00 0.00 0.00 38 1019.8
20181215042344 31 62 3.0 7.0 0.00 0.00 0.00 38 1019.8
20181215041331 31 63 3.0 7.0 0.00 0.00 0.00 40 1019.9
20181215040331 31 64 4.0 8.0 0.00 0.00 0.00 39 1020.1
20181215035336 32 61 4.0 5.0 0.00 0.00 0.00 37 1020.1
20181215034340 32 76 4.0 5.0 0.00 0.00 0.00 39 1020.3
20181215033346 32 67 3.0 5.0 0.00 0.00 0.00 37 1020.3
20181215032333 33 76 2.0 5.0 0.00 0.00 0.00 37 1020.3
20181215031335 33 72 3.0 5.0 0.00 0.00 0.00 35 1020.3
20181215030336 34 78 2.0 5.0 0.00 0.00 0.00 34 1020.4
20181215025348 34 86 3.0 4.0 0.00 0.00 0.00 34 1020.4
20181215024351 34 156 3.0 7.0 0.00 0.00 0.00 32 1020.6
20181215023334 32 109 3.0 8.0 0.00 0.00 0.00 32 1020.9
20181215022340 30 133 4.0 8.0 0.00 0.00 0.00 36 1020.9
20181215021348 30 69 2.0 5.0 0.00 0.00 0.00 44 1020.9
20181215020334 31 117 2.0 7.0 0.00 0.00 0.00 43 1021.0
20181215015341 31 63 4.0 5.0 0.00 0.00 0.00 42 1021.0
20181215014344 31 68 3.0 4.0 0.00 0.00 0.00 43 1021.0
20181215013334 31 83 4.0 7.0 0.00 0.00 0.00 39 1021.0
20181215012338 30 97 5.0 8.0 0.00 0.00 0.00 40 1021.0
20181215011345 30 158 2.0 5.0 0.00 0.00 0.00 41 1021.0
20181215010331 31 104 2.0 5.0 0.00 0.00 0.00 42 1021.0
20181215005339 31 76 3.0 9.0 0.00 0.00 0.00 40 1021.0
20181215004345 30 98 5.0 7.0 0.00 0.00 0.00 44 1021.1
20181215003349 29 92 2.0 5.0 0.00 0.00 0.00 46 1021.3
20181215002335 30 89 3.0 5.0 0.00 0.00 0.00 46 1021.3
20181215001345 31 74 2.0 4.0 0.00 0.00 0.00 43 1021.4
20181215000346 33 121 2.0 5.0 0.00 0.00 0.00 39 1021.6
20181214235331 34 112 2.0 4.0 0.00 0.00 0.00 38 1021.6
20181214234338 36 134 2.0 5.0 0.00 0.00 0.00 31 1021.5
20181214233349 37 128 4.0 8.0 0.00 0.00 0.00 28 1021.6
20181214232335 38 143 3.0 6.0 0.00 0.00 0.00 28 1021.6
20181214231343 39 140 4.0 6.0 0.00 0.00 0.00 27 1021.6
20181214230344 40 160 3.0 5.0 0.00 0.00 0.00 26 1021.6
20181214225331 41 157 3.0 8.0 0.00 0.00 0.00 25 1021.6
20181214224334 42 162 3.0 6.0 0.00 0.00 0.00 25 1021.5
20181214223336 43 156 4.0 7.0 0.00 0.00 0.00 24 1021.4
20181214222341 44 179 5.0 9.0 0.00 0.00 0.00 24 1021.4
20181214221349 45 178 3.0 7.0 0.00 0.00 0.00 23 1021.5
20181214220351 45 156 4.0 9.0 0.00 0.00 0.00 23 1021.2
20181214215337 46 153 4.0 9.0 0.00 0.00 0.00 22 1021.2
20181214214337 46 147 5.0 8.0 0.00 0.00 0.00 22 1021.3
20181214213343 46 184 5.0 9.0 0.00 0.00 0.00 21 1021.1
20181214212331 46 133 4.0 9.0 0.00 0.00 0.00 23 1021.1
20181214211334 46 132 5.0 9.0 0.00 0.00 0.00 22 1021.2
20181214210337 47 182 4.0 9.0 0.00 0.00 0.00 23 1021.0
20181214205347 47 167 3.0 7.0 0.00 0.00 0.00 23 1021.0
20181214204351 47 146 5.0 10.0 0.00 0.00 0.00 21 1021.0
20181214203333 48 181 6.0 9.0 0.00 0.00 0.00 21 1021.0
20181214202342 49 148 6.0 8.0 0.00 0.00 0.00 21 1021.0
20181214201348 49 167 5.0 8.0 0.00 0.00 0.00 20 1021.1
20181214200330 50 149 4.0 9.0 0.00 0.00 0.00 20 1021.1
20181214195333 50 184 4.0 7.0 0.00 0.00 0.00 18 1021.1
20181214194339 50 173 5.0 9.0 0.00 0.00 0.00 21 1021.3
20181214193349 50 140 5.0 8.0 0.00 0.00 0.00 20 1021.6
20181214192334 49 217 2.0 7.0 0.00 0.00 0.00 21 1021.6
20181214191334 49 179 3.0 6.0 0.00 0.00 0.00 20 1022.2